Time,TemperatureF,DewpointF,PressureIn,WindDirection,WindDirectionDegrees,WindSpeedMPH,WindSpeedGustMPH,Humidity,HourlyPrecipIn,Conditions,Clouds,dailyrainin,SoftwareType,DateUTC
2013-09-25 00:02:00,50.2,38.5,29.62,WNW,292,0.0,0.0,64,0.00,,---,0.00,VWS V14.01,2013-09-25 07:02:00,
2013-09-25 00:08:00,50.2,38.9,29.62,WNW,292,0.0,0.0,65,0.00,,---,0.00,VWS V14.01,2013-09-25 07:08:00,
2013-09-25 00:14:00,50.2,38.9,29.62,WNW,292,0.0,0.0,65,0.00,,---,0.00,VWS V14.01,2013-09-25 07:14:00,
2013-09-25 00:20:00,50.2,38.9,29.62,WNW,292,0.0,0.0,65,0.00,,---,0.00,VWS V14.01,2013-09-25 07:20:00,
2013-09-25 00:26:00,50.2,38.5,29.62,WNW,292,0.0,0.0,64,0.00,,---,0.00,VWS V14.01,2013-09-25 07:26:00,
2013-09-25 00:32:00,50.2,38.9,29.62,WNW,292,0.0,0.0,65,0.00,,---,0.00,VWS V14.01,2013-09-25 07:32:00,
2013-09-25 00:38:00,50.2,38.9,29.62,WNW,292,0.0,0.0,65,0.00,,---,0.00,VWS V14.01,2013-09-25 07:38:00,
2013-09-25 00:44:00,50.0,38.7,29.62,WNW,292,0.0,0.0,65,0.00,,---,0.00,VWS V14.01,2013-09-25 07:44:00,
2013-09-25 00:50:00,50.0,38.7,29.62,WNW,292,0.0,0.0,65,0.00,,---,0.00,VWS V14.01,2013-09-25 07:50:00,
2013-09-25 00:56:00,50.0,38.7,29.62,WNW,292,0.0,0.0,65,0.00,,---,0.00,VWS V14.01,2013-09-25 07:56:00,
2013-09-25 01:02:00,50.0,38.7,29.62,WNW,292,0.0,0.0,65,0.00,,---,0.00,VWS V14.01,2013-09-25 08:02:00,
2013-09-25 01:08:00,50.0,38.7,29.62,WNW,292,0.0,0.0,65,0.00,,---,0.00,VWS V14.01,2013-09-25 08:08:00,
2013-09-25 01:14:00,50.0,38.7,29.62,WNW,292,0.0,0.0,65,0.00,,---,0.00,VWS V14.01,2013-09-25 08:14:00,
2013-09-25 01:20:00,49.8,38.9,29.62,WNW,292,0.0,0.0,66,0.00,,---,0.00,VWS V14.01,2013-09-25 08:20:00,
2013-09-25 01:26:00,49.8,38.9,29.62,WNW,292,0.0,0.0,66,0.00,,---,0.00,VWS V14.01,2013-09-25 08:26:00,
2013-09-25 01:32:00,49.8,38.9,29.62,WNW,292,0.0,0.0,66,0.00,,---,0.00,VWS V14.01,2013-09-25 08:32:00,
2013-09-25 01:38:00,49.8,38.9,29.62,WNW,292,0.0,0.0,66,0.00,,---,0.00,VWS V14.01,2013-09-25 08:38:00,
2013-09-25 01:44:00,49.8,38.9,29.62,WNW,292,0.0,0.0,66,0.00,,---,0.00,VWS V14.01,2013-09-25 08:44:00,
2013-09-25 01:50:00,49.8,39.3,29.62,WNW,292,0.0,0.0,67,0.00,,---,0.00,VWS V14.01,2013-09-25 08:50:00,
2013-09-25 01:56:00,49.8,39.3,29.62,WNW,292,0.0,0.0,67,0.00,,---,0.00,VWS V14.01,2013-09-25 08:56:00,
2013-09-25 02:02:00,49.8,39.3,29.62,WNW,292,0.0,0.0,67,0.00,,---,0.00,VWS V14.01,2013-09-25 09:02:00,
2013-09-25 02:08:00,49.6,39.2,29.62,WNW,292,0.0,0.0,67,0.00,,---,0.00,VWS V14.01,2013-09-25 09:08:00,
2013-09-25 02:14:00,49.6,38.8,29.62,WNW,292,0.0,0.0,66,0.00,,---,0.00,VWS V14.01,2013-09-25 09:14:00,
2013-09-25 02:20:00,49.6,38.8,29.62,WNW,292,0.0,0.0,66,0.00,,---,0.00,VWS V14.01,2013-09-25 09:20:00,
2013-09-25 02:26:00,49.6,39.2,29.62,WNW,292,0.0,0.0,67,0.00,,---,0.00,VWS V14.01,2013-09-25 09:26:00,
2013-09-25 02:32:00,49.6,39.2,29.62,WNW,292,0.0,0.0,67,0.00,,---,0.00,VWS V14.01,2013-09-25 09:32:00,
2013-09-25 02:38:00,49.6,39.2,29.62,WNW,292,0.0,0.0,67,0.00,,---,0.00,VWS V14.01,2013-09-25 09:38:00,
2013-09-25 02:44:00,49.5,39.0,29.62,WNW,292,0.0,0.0,67,0.00,,---,0.00,VWS V14.01,2013-09-25 09:44:00,
2013-09-25 02:50:00,49.5,39.0,29.62,WNW,292,0.0,0.0,67,0.00,,---,0.00,VWS V14.01,2013-09-25 09:50:00,
2013-09-25 02:56:00,49.3,38.8,29.62,WNW,292,0.0,0.0,67,0.00,,---,0.00,VWS V14.01,2013-09-25 09:56:00,
2013-09-25 03:04:00,49.3,38.8,29.62,WNW,292,0.0,0.0,67,0.00,,---,0.00,VWS V14.01,2013-09-25 10:04:00,
2013-09-25 03:10:00,49.1,38.6,29.62,WNW,292,0.0,0.0,67,0.00,,---,0.00,VWS V14.01,2013-09-25 10:10:00,
2013-09-25 03:16:00,49.1,39.0,29.62,WNW,292,0.0,0.0,68,0.00,,---,0.00,VWS V14.01,2013-09-25 10:16:00,
2013-09-25 03:22:00,49.1,39.0,29.62,WNW,291,0.0,0.0,68,0.00,,---,0.00,VWS V14.01,2013-09-25 10:22:00,
2013-09-25 03:28:00,49.1,39.0,29.62,WNW,292,0.0,0.0,68,0.00,,---,0.00,VWS V14.01,2013-09-25 10:28:00,
2013-09-25 03:34:00,49.1,39.0,29.62,WNW,292,0.0,0.0,68,0.00,,---,0.00,VWS V14.01,2013-09-25 10:34:00,
2013-09-25 03:40:00,49.1,39.0,29.62,WNW,292,0.0,0.0,68,0.00,,---,0.00,VWS V14.01,2013-09-25 10:40:00,
2013-09-25 03:46:00,49.1,39.4,29.62,WNW,292,0.0,0.0,69,0.00,,---,0.00,VWS V14.01,2013-09-25 10:46:00,
2013-09-25 03:52:00,49.1,39.4,29.62,WNW,292,0.0,0.0,69,0.00,,---,0.00,VWS V14.01,2013-09-25 10:52:00,
2013-09-25 03:58:00,49.1,39.4,29.62,WNW,292,0.0,0.0,69,0.00,,---,0.00,VWS V14.01,2013-09-25 10:58:00,
2013-09-25 04:04:00,49.1,39.4,29.62,WNW,292,0.0,0.0,69,0.00,,---,0.00,VWS V14.01,2013-09-25 11:04:00,
2013-09-25 04:10:00,49.1,39.4,29.62,WNW,292,0.0,0.0,69,0.00,,---,0.00,VWS V14.01,2013-09-25 11:10:00,
2013-09-25 04:16:00,49.3,39.9,29.62,WNW,292,0.0,0.0,70,0.00,,---,0.00,VWS V14.01,2013-09-25 11:16:00,
2013-09-25 04:22:00,49.3,39.9,29.62,WNW,292,0.0,0.0,70,0.00,,---,0.00,VWS V14.01,2013-09-25 11:22:00,
2013-09-25 04:28:00,49.3,39.9,29.62,WNW,292,0.0,0.0,70,0.00,,---,0.00,VWS V14.01,2013-09-25 11:28:00,
2013-09-25 04:34:00,49.1,39.8,29.62,WNW,292,0.0,0.0,70,0.00,,---,0.00,VWS V14.01,2013-09-25 11:34:00,
2013-09-25 04:40:00,49.1,39.8,29.62,WNW,292,0.0,0.0,70,0.00,,---,0.00,VWS V14.01,2013-09-25 11:40:00,
2013-09-25 04:46:00,49.1,39.8,29.62,WNW,292,0.0,0.0,70,0.00,,---,0.00,VWS V14.01,2013-09-25 11:46:00,
2013-09-25 04:52:00,49.1,40.1,29.62,WNW,292,0.0,0.0,71,0.04,,---,0.04,VWS V14.01,2013-09-25 11:52:00,
2013-09-25 04:58:00,49.1,40.1,29.65,WNW,292,0.0,0.0,71,0.04,,---,0.04,VWS V14.01,2013-09-25 11:58:00,
2013-09-25 05:04:00,49.1,40.1,29.65,WNW,292,0.0,0.0,71,0.04,,---,0.04,VWS V14.01,2013-09-25 12:04:00,
2013-09-25 05:10:00,49.1,40.1,29.65,WNW,292,0.0,0.0,71,0.04,,---,0.04,VWS V14.01,2013-09-25 12:10:00,
2013-09-25 05:16:00,49.3,40.3,29.65,WNW,292,0.0,0.0,71,0.04,,---,0.04,VWS V14.01,2013-09-25 12:16:00,
2013-09-25 05:22:00,49.3,40.3,29.65,WNW,292,0.0,0.0,71,0.04,,---,0.04,VWS V14.01,2013-09-25 12:22:00,
2013-09-25 05:28:00,49.3,40.3,29.65,WNW,292,0.0,0.0,71,0.04,,---,0.04,VWS V14.01,2013-09-25 12:28:00,
2013-09-25 05:30:00,49.3,40.3,29.65,WNW,292,0.0,0.0,71,0.04,,---,0.04,VWS V14.01,2013-09-25 12:30:00,
2013-09-25 05:36:00,49.3,40.3,29.65,WNW,292,0.0,0.0,71,0.04,,---,0.04,VWS V14.01,2013-09-25 12:36:00,
2013-09-25 05:42:00,49.3,40.3,29.65,WNW,292,0.0,0.0,71,0.04,,---,0.04,VWS V14.01,2013-09-25 12:42:00,
2013-09-25 05:48:00,49.1,40.1,29.65,WNW,292,0.0,0.0,71,0.04,,---,0.04,VWS V14.01,2013-09-25 12:48:00,
2013-09-25 05:54:00,49.3,40.3,29.65,WNW,291,0.0,0.0,71,0.00,,---,0.04,VWS V14.01,2013-09-25 12:54:00,
2013-09-25 06:00:00,49.3,40.3,29.65,WNW,292,0.0,0.0,71,0.00,,---,0.04,VWS V14.01,2013-09-25 13:00:00,
2013-09-25 06:06:00,49.3,40.3,29.65,WNW,292,0.0,0.0,71,0.00,,---,0.04,VWS V14.01,2013-09-25 13:06:00,
2013-09-25 06:12:00,49.3,40.7,29.65,WNW,292,0.0,0.0,72,0.00,,---,0.04,VWS V14.01,2013-09-25 13:12:00,
2013-09-25 06:18:00,49.3,40.7,29.65,WNW,292,0.0,0.0,72,0.00,,---,0.04,VWS V14.01,2013-09-25 13:18:00,
2013-09-25 06:24:00,49.3,40.7,29.65,WNW,292,0.0,0.0,72,0.00,,---,0.04,VWS V14.01,2013-09-25 13:24:00,
2013-09-25 06:30:00,49.5,40.8,29.65,WNW,292,0.0,0.0,72,0.00,,---,0.04,VWS V14.01,2013-09-25 13:30:00,
2013-09-25 06:36:00,49.5,40.8,29.65,WNW,292,0.0,0.0,72,0.00,,---,0.04,VWS V14.01,2013-09-25 13:36:00,
2013-09-25 06:42:00,49.5,40.8,29.65,WNW,292,0.0,0.0,72,0.00,,---,0.04,VWS V14.01,2013-09-25 13:42:00,
2013-09-25 06:48:00,49.5,40.8,29.65,WNW,291,0.0,0.0,72,0.00,,---,0.04,VWS V14.01,2013-09-25 13:48:00,
2013-09-25 06:54:00,49.5,40.8,29.65,WNW,292,0.0,0.0,72,0.00,,---,0.04,VWS V14.01,2013-09-25 13:54:00,
2013-09-25 07:00:00,49.5,41.2,29.65,WNW,292,0.0,0.0,73,0.00,,---,0.04,VWS V14.01,2013-09-25 14:00:00,
2013-09-25 07:06:00,49.6,41.3,29.65,WNW,292,0.0,0.0,73,0.00,,---,0.04,VWS V14.01,2013-09-25 14:06:00,
2013-09-25 07:12:00,49.6,41.0,29.65,WNW,292,0.0,0.0,72,0.00,,---,0.04,VWS V14.01,2013-09-25 14:12:00,
2013-09-25 07:18:00,49.6,41.0,29.65,WNW,292,0.0,0.0,72,0.00,,---,0.04,VWS V14.01,2013-09-25 14:18:00,
2013-09-25 07:24:00,49.8,41.5,29.68,WNW,292,0.0,0.0,73,0.00,,---,0.04,VWS V14.01,2013-09-25 14:24:00,
2013-09-25 07:30:00,49.8,41.5,29.68,WNW,292,0.0,0.0,73,0.00,,---,0.04,VWS V14.01,2013-09-25 14:30:00,
2013-09-25 07:36:00,50.0,41.7,29.68,WNW,292,0.0,0.0,73,0.00,,---,0.04,VWS V14.01,2013-09-25 14:36:00,
2013-09-25 07:42:00,50.0,41.7,29.68,WNW,292,0.0,0.0,73,0.00,,---,0.04,VWS V14.01,2013-09-25 14:42:00,
2013-09-25 07:48:00,50.2,41.9,29.68,WNW,292,0.0,0.0,73,0.00,,---,0.04,VWS V14.01,2013-09-25 14:48:00,
2013-09-25 07:54:00,50.2,41.9,29.68,WNW,292,0.0,0.0,73,0.00,,---,0.04,VWS V14.01,2013-09-25 14:54:00,
2013-09-25 08:00:00,50.5,42.6,29.68,WNW,292,0.0,0.0,74,0.00,,---,0.04,VWS V14.01,2013-09-25 15:00:00,
2013-09-25 08:06:00,50.5,42.6,29.68,WNW,292,0.0,0.0,74,0.00,,---,0.04,VWS V14.01,2013-09-25 15:06:00,
2013-09-25 08:12:00,50.7,42.8,29.68,WNW,291,0.0,0.0,74,0.00,,---,0.04,VWS V14.01,2013-09-25 15:12:00,
2013-09-25 08:18:00,50.7,42.8,29.68,WNW,292,0.0,0.0,74,0.00,,---,0.04,VWS V14.01,2013-09-25 15:18:00,
2013-09-25 08:24:00,50.7,42.8,29.68,WNW,292,0.0,0.0,74,0.00,,---,0.04,VWS V14.01,2013-09-25 15:24:00,
2013-09-25 08:30:00,50.9,42.9,29.68,WNW,292,0.0,0.0,74,0.00,,---,0.04,VWS V14.01,2013-09-25 15:30:00,
2013-09-25 08:36:00,50.9,42.9,29.68,WNW,292,0.0,0.0,74,0.00,,---,0.04,VWS V14.01,2013-09-25 15:36:00,
2013-09-25 08:42:00,51.1,43.1,29.68,WNW,292,0.0,0.0,74,0.00,,---,0.04,VWS V14.01,2013-09-25 15:42:00,
2013-09-25 08:48:00,51.1,43.1,29.68,SSW,212,0.0,0.0,74,0.00,,---,0.04,VWS V14.01,2013-09-25 15:48:00,
2013-09-25 08:54:00,51.3,43.6,29.68,SSW,212,0.0,0.0,75,0.00,,---,0.04,VWS V14.01,2013-09-25 15:54:00,
2013-09-25 09:00:00,51.4,43.8,29.68,SSW,212,0.0,0.0,75,0.00,,---,0.04,VWS V14.01,2013-09-25 16:00:00,
2013-09-25 09:06:00,51.4,43.8,29.68,SSW,212,0.0,0.0,75,0.00,,---,0.04,VWS V14.01,2013-09-25 16:06:00,
2013-09-25 09:12:00,51.6,44.0,29.68,SSW,212,0.0,0.0,75,0.00,,---,0.04,VWS V14.01,2013-09-25 16:12:00,
2013-09-25 09:18:00,51.6,43.6,29.68,SSW,211,0.0,0.0,74,0.00,,---,0.04,VWS V14.01,2013-09-25 16:18:00,
2013-09-25 09:24:00,51.6,43.6,29.68,SSW,211,0.0,0.0,74,0.00,,---,0.04,VWS V14.01,2013-09-25 16:24:00,
2013-09-25 09:30:00,51.6,43.3,29.68,SSW,211,0.0,0.0,73,0.00,,---,0.04,VWS V14.01,2013-09-25 16:30:00,
2013-09-25 09:36:00,51.6,42.9,29.68,SSW,212,0.0,0.0,72,0.00,,---,0.04,VWS V14.01,2013-09-25 16:36:00,
2013-09-25 09:42:00,51.6,42.5,29.68,SSW,212,0.0,0.0,71,0.00,,---,0.04,VWS V14.01,2013-09-25 16:42:00,
2013-09-25 09:48:00,51.8,42.3,29.68,SSW,211,0.0,0.0,70,0.00,,---,0.04,VWS V14.01,2013-09-25 16:48:00,
2013-09-25 09:54:00,52.2,42.7,29.68,SSW,211,0.0,0.0,70,0.00,,---,0.04,VWS V14.01,2013-09-25 16:54:00,
2013-09-25 10:00:00,52.3,42.9,29.68,SSW,212,0.0,0.0,70,0.00,,---,0.04,VWS V14.01,2013-09-25 17:00:00,
2013-09-25 10:06:00,52.5,43.0,29.68,SSW,212,0.0,0.0,70,0.00,,---,0.04,VWS V14.01,2013-09-25 17:06:00,
2013-09-25 10:12:00,52.5,40.3,29.68,SSW,212,0.0,0.0,63,0.00,,---,0.04,VWS V14.01,2013-09-25 17:12:00,
2013-09-25 10:18:00,52.5,39.0,29.68,SSW,211,0.0,0.0,60,0.00,,---,0.04,VWS V14.01,2013-09-25 17:18:00,
2013-09-25 10:24:00,52.5,38.2,29.68,SE,146,0.0,0.0,58,0.00,,---,0.04,VWS V14.01,2013-09-25 17:24:00,
2013-09-25 10:30:00,52.3,36.7,29.68,SE,146,0.0,0.0,55,0.00,,---,0.04,VWS V14.01,2013-09-25 17:30:00,
2013-09-25 10:36:00,52.5,37.7,29.68,SE,146,0.0,0.0,57,0.00,,---,0.04,VWS V14.01,2013-09-25 17:36:00,
2013-09-25 10:42:00,52.7,38.3,29.68,SE,146,0.0,0.0,58,0.00,,---,0.04,VWS V14.01,2013-09-25 17:42:00,
2013-09-25 10:48:00,53.1,40.0,29.68,South,176,0.0,0.0,61,0.00,,---,0.04,VWS V14.01,2013-09-25 17:48:00,
2013-09-25 10:54:00,53.1,38.7,29.71,South,176,0.0,0.0,58,0.00,,---,0.04,VWS V14.01,2013-09-25 17:54:00,
2013-09-25 11:00:00,53.1,38.7,29.71,South,176,0.0,0.0,58,0.00,,---,0.04,VWS V14.01,2013-09-25 18:00:00,
2013-09-25 11:06:00,53.1,38.2,29.71,South,176,0.0,0.0,57,0.00,,---,0.04,VWS V14.01,2013-09-25 18:06:00,
2013-09-25 11:12:00,52.9,38.5,29.71,South,176,0.0,0.0,58,0.00,,---,0.04,VWS V14.01,2013-09-25 18:12:00,
2013-09-25 11:18:00,52.7,37.5,29.71,South,176,0.0,0.0,56,0.00,,---,0.04,VWS V14.01,2013-09-25 18:18:00,
2013-09-25 11:24:00,52.9,36.7,29.71,South,176,0.0,0.0,54,0.00,,---,0.04,VWS V14.01,2013-09-25 18:24:00,
2013-09-25 11:30:00,52.9,36.7,29.71,South,176,0.0,0.0,54,0.00,,---,0.04,VWS V14.01,2013-09-25 18:30:00,
2013-09-25 11:36:00,52.9,37.6,29.71,South,176,0.0,0.0,56,0.00,,---,0.04,VWS V14.01,2013-09-25 18:36:00,
2013-09-25 11:42:00,52.7,37.5,29.71,South,176,0.0,0.0,56,0.00,,---,0.04,VWS V14.01,2013-09-25 18:42:00,
2013-09-25 11:48:00,52.3,36.7,29.71,SSE,157,0.0,0.0,55,0.00,,---,0.04,VWS V14.01,2013-09-25 18:48:00,
2013-09-25 11:54:00,52.3,36.7,29.71,SSE,157,0.0,0.0,55,0.00,,---,0.04,VWS V14.01,2013-09-25 18:54:00,
2013-09-25 12:00:00,52.2,37.0,29.71,SSE,157,0.0,0.0,56,0.00,,---,0.04,VWS V14.01,2013-09-25 19:00:00,
2013-09-25 12:06:00,52.2,37.4,29.71,SSE,157,0.0,0.0,57,0.00,,---,0.04,VWS V14.01,2013-09-25 19:06:00,
2013-09-25 12:12:00,52.0,37.2,29.71,SSE,157,0.0,0.0,57,0.00,,---,0.04,VWS V14.01,2013-09-25 19:12:00,
2013-09-25 12:18:00,52.2,37.4,29.71,SSE,157,0.0,0.0,57,0.00,,---,0.04,VWS V14.01,2013-09-25 19:18:00,
2013-09-25 12:24:00,52.2,37.8,29.71,SSE,157,0.0,0.0,58,0.00,,---,0.04,VWS V14.01,2013-09-25 19:24:00,
2013-09-25 12:30:00,52.3,38.5,29.71,SSE,157,0.0,0.0,59,0.00,,---,0.04,VWS V14.01,2013-09-25 19:30:00,
2013-09-25 12:36:00,52.5,39.0,29.71,SSE,157,0.0,0.0,60,0.00,,---,0.04,VWS V14.01,2013-09-25 19:36:00,
2013-09-25 12:42:00,52.7,39.2,29.71,SSE,157,0.0,0.0,60,0.00,,---,0.04,VWS V14.01,2013-09-25 19:42:00,
2013-09-25 12:48:00,52.9,39.8,29.71,SSE,157,0.0,0.0,61,0.00,,---,0.04,VWS V14.01,2013-09-25 19:48:00,
2013-09-25 12:54:00,52.9,39.8,29.71,SSE,157,0.0,0.0,61,0.00,,---,0.04,VWS V14.01,2013-09-25 19:54:00,
2013-09-25 13:00:00,53.1,40.0,29.71,SSE,157,0.0,0.0,61,0.00,,---,0.04,VWS V14.01,2013-09-25 20:00:00,
2013-09-25 13:06:00,53.2,41.0,29.71,SSE,157,0.0,0.0,63,0.00,,---,0.04,VWS V14.01,2013-09-25 20:06:00,
2013-09-25 13:12:00,53.4,41.2,29.71,SSE,157,0.0,0.0,63,0.00,,---,0.04,VWS V14.01,2013-09-25 20:12:00,
2013-09-25 13:18:00,53.4,40.7,29.71,SSE,157,0.0,0.0,62,0.00,,---,0.04,VWS V14.01,2013-09-25 20:18:00,
2013-09-25 13:24:00,53.2,40.2,29.71,SSE,157,0.0,0.0,61,0.00,,---,0.04,VWS V14.01,2013-09-25 20:24:00,
2013-09-25 13:30:00,53.2,39.7,29.71,SSE,157,0.0,0.0,60,0.00,,---,0.04,VWS V14.01,2013-09-25 20:30:00,
2013-09-25 13:36:00,53.1,39.1,29.71,SSE,157,0.0,0.0,59,0.00,,---,0.04,VWS V14.01,2013-09-25 20:36:00,
2013-09-25 13:42:00,53.1,39.1,29.74,SSE,157,0.0,0.0,59,0.00,,---,0.04,VWS V14.01,2013-09-25 20:42:00,
2013-09-25 13:48:00,52.9,39.0,29.74,SSE,157,0.0,0.0,59,0.00,,---,0.04,VWS V14.01,2013-09-25 20:48:00,
2013-09-25 13:54:00,52.9,39.4,29.74,SSE,157,0.0,0.0,60,0.00,,---,0.04,VWS V14.01,2013-09-25 20:54:00,
2013-09-25 14:00:00,52.9,39.0,29.74,SSE,157,0.0,0.0,59,0.00,,---,0.04,VWS V14.01,2013-09-25 21:00:00,
2013-09-25 14:06:00,53.1,39.6,29.74,SSE,157,0.0,0.0,60,0.00,,---,0.04,VWS V14.01,2013-09-25 21:06:00,
2013-09-25 14:12:00,52.9,39.0,29.74,SSE,157,0.0,0.0,59,0.00,,---,0.04,VWS V14.01,2013-09-25 21:12:00,
2013-09-25 14:18:00,52.9,39.0,29.74,SSE,157,0.0,0.0,59,0.00,,---,0.04,VWS V14.01,2013-09-25 21:18:00,
2013-09-25 14:24:00,52.9,39.0,29.74,SSE,157,0.0,0.0,59,0.00,,---,0.04,VWS V14.01,2013-09-25 21:24:00,
2013-09-25 14:30:00,53.1,38.7,29.74,SSE,157,0.0,0.0,58,0.00,,---,0.04,VWS V14.01,2013-09-25 21:30:00,
2013-09-25 14:36:00,53.1,38.2,29.74,SSE,157,0.0,0.0,57,0.00,,---,0.04,VWS V14.01,2013-09-25 21:36:00,
2013-09-25 14:42:00,53.1,38.7,29.74,SSE,157,0.0,0.0,58,0.00,,---,0.04,VWS V14.01,2013-09-25 21:42:00,
2013-09-25 14:48:00,53.2,39.3,29.74,SSE,157,0.0,0.0,59,0.00,,---,0.04,VWS V14.01,2013-09-25 21:48:00,
2013-09-25 14:54:00,53.6,39.6,29.74,SSE,157,0.0,0.0,59,0.00,,---,0.04,VWS V14.01,2013-09-25 21:54:00,
2013-09-25 15:00:00,53.8,39.4,29.74,SSE,157,0.0,0.0,58,0.00,,---,0.04,VWS V14.01,2013-09-25 22:00:00,
2013-09-25 15:06:00,53.8,38.9,29.74,SSE,157,0.0,0.0,57,0.00,,---,0.04,VWS V14.01,2013-09-25 22:06:00,
2013-09-25 15:12:00,54.7,40.7,29.74,SSE,157,0.0,0.0,59,0.00,,---,0.04,VWS V14.01,2013-09-25 22:12:00,
2013-09-25 15:18:00,55.0,37.3,29.74,SSE,157,0.0,0.0,51,0.00,,---,0.04,VWS V14.01,2013-09-25 22:18:00,
2013-09-25 15:24:00,55.4,36.1,29.74,SSE,157,0.0,0.0,48,0.00,,---,0.04,VWS V14.01,2013-09-25 22:24:00,
2013-09-25 15:30:00,56.1,34.5,29.74,SW,218,0.0,0.0,44,0.00,,---,0.04,VWS V14.01,2013-09-25 22:30:00,
2013-09-25 15:36:00,56.8,32.2,29.74,WNW,286,0.0,0.0,39,0.00,,---,0.04,VWS V14.01,2013-09-25 22:36:00,
2013-09-25 15:42:00,56.8,31.5,29.74,WNW,288,0.0,0.0,38,0.00,,---,0.04,VWS V14.01,2013-09-25 22:42:00,
2013-09-25 15:48:00,57.4,33.3,29.74,WNW,288,0.0,0.0,40,0.00,,---,0.04,VWS V14.01,2013-09-25 22:48:00,
2013-09-25 15:54:00,57.9,32.5,29.74,WNW,288,0.0,0.0,38,0.00,,---,0.04,VWS V14.01,2013-09-25 22:54:00,
2013-09-25 16:02:00,58.8,32.6,29.74,SE,140,0.0,0.0,37,0.00,,---,0.04,VWS V14.01,2013-09-25 23:02:00,
2013-09-25 16:08:00,58.5,32.3,29.74,SE,140,0.0,0.0,37,0.00,,---,0.04,VWS V14.01,2013-09-25 23:08:00,
2013-09-25 16:14:00,57.7,31.7,29.74,SE,137,0.0,0.0,37,0.00,,---,0.04,VWS V14.01,2013-09-25 23:14:00,
2013-09-25 16:20:00,57.2,31.8,29.74,SE,137,0.0,0.0,38,0.00,,---,0.04,VWS V14.01,2013-09-25 23:20:00,
2013-09-25 16:26:00,56.8,31.5,29.74,SE,132,0.0,0.0,38,0.00,,---,0.04,VWS V14.01,2013-09-25 23:26:00,
2013-09-25 16:32:00,56.7,33.8,29.74,SE,132,0.0,0.0,42,0.00,,---,0.04,VWS V14.01,2013-09-25 23:32:00,
2013-09-25 16:38:00,56.3,35.2,29.74,SE,132,0.0,0.0,45,0.00,,---,0.04,VWS V14.01,2013-09-25 23:38:00,
2013-09-25 16:44:00,56.1,35.1,29.74,SE,132,0.0,0.0,45,0.00,,---,0.04,VWS V14.01,2013-09-25 23:44:00,
2013-09-25 16:50:00,56.1,35.1,29.74,SE,132,0.0,0.0,45,0.00,,---,0.04,VWS V14.01,2013-09-25 23:50:00,
2013-09-25 16:56:00,56.3,34.7,29.74,SE,132,0.0,0.0,44,0.00,,---,0.04,VWS V14.01,2013-09-25 23:56:00,
2013-09-25 17:02:00,56.3,34.1,29.74,SE,132,0.0,0.0,43,0.00,,---,0.04,VWS V14.01,2013-09-26 00:02:00,
2013-09-25 17:08:00,56.5,34.8,29.74,SE,132,0.0,0.0,44,0.00,,---,0.04,VWS V14.01,2013-09-26 00:08:00,
2013-09-25 17:14:00,56.7,34.4,29.74,SE,132,0.0,0.0,43,0.00,,---,0.04,VWS V14.01,2013-09-26 00:14:00,
2013-09-25 17:20:00,56.7,33.8,29.74,SE,132,0.0,0.0,42,0.00,,---,0.04,VWS V14.01,2013-09-26 00:20:00,
2013-09-25 17:26:00,56.1,32.8,29.74,SE,132,0.0,0.0,41,0.00,,---,0.04,VWS V14.01,2013-09-26 00:26:00,
2013-09-25 17:32:00,55.9,33.8,29.74,SE,132,0.0,0.0,43,0.00,,---,0.04,VWS V14.01,2013-09-26 00:32:00,
2013-09-25 17:38:00,55.9,35.5,29.74,SE,132,0.0,0.0,46,0.00,,---,0.04,VWS V14.01,2013-09-26 00:38:00,
2013-09-25 17:44:00,55.9,34.9,29.74,SE,132,0.0,0.0,45,0.00,,---,0.04,VWS V14.01,2013-09-26 00:44:00,
2013-09-25 17:50:00,55.8,34.8,29.74,SE,132,0.0,0.0,45,0.00,,---,0.04,VWS V14.01,2013-09-26 00:50:00,
2013-09-25 17:56:00,55.9,34.4,29.74,SE,132,0.0,0.0,44,0.00,,---,0.04,VWS V14.01,2013-09-26 00:56:00,
2013-09-25 18:02:00,55.6,33.5,29.74,SE,132,0.0,0.0,43,0.00,,---,0.04,VWS V14.01,2013-09-26 01:02:00,
2013-09-25 18:08:00,55.2,34.3,29.74,SE,132,0.0,0.0,45,0.00,,---,0.04,VWS V14.01,2013-09-26 01:08:00,
2013-09-25 18:14:00,54.7,34.3,29.74,SE,132,0.0,0.0,46,0.00,,---,0.04,VWS V14.01,2013-09-26 01:14:00,
2013-09-25 18:20:00,54.3,34.5,29.74,SE,132,0.0,0.0,47,0.00,,---,0.04,VWS V14.01,2013-09-26 01:20:00,
2013-09-25 18:26:00,54.0,33.7,29.74,SE,132,0.0,0.0,46,0.00,,---,0.04,VWS V14.01,2013-09-26 01:26:00,
2013-09-25 18:32:00,53.6,33.3,29.74,SE,132,0.0,0.0,46,0.00,,---,0.04,VWS V14.01,2013-09-26 01:32:00,
2013-09-25 18:38:00,53.2,33.5,29.74,SE,132,0.0,0.0,47,0.00,,---,0.04,VWS V14.01,2013-09-26 01:38:00,
2013-09-25 18:44:00,53.1,33.4,29.77,SE,132,0.0,0.0,47,0.00,,---,0.04,VWS V14.01,2013-09-26 01:44:00,
2013-09-25 18:50:00,52.7,33.6,29.77,SE,132,0.0,0.0,48,0.00,,---,0.04,VWS V14.01,2013-09-26 01:50:00,
2013-09-25 18:56:00,52.2,33.1,29.77,SE,132,0.0,0.0,48,0.00,,---,0.04,VWS V14.01,2013-09-26 01:56:00,
2013-09-25 19:02:00,51.6,32.6,29.77,SE,132,0.0,0.0,48,0.00,,---,0.04,VWS V14.01,2013-09-26 02:02:00,
2013-09-25 19:08:00,51.4,32.9,29.77,SE,132,0.0,0.0,49,0.00,,---,0.04,VWS V14.01,2013-09-26 02:08:00,
2013-09-25 19:14:00,51.1,32.6,29.77,SE,132,0.0,0.0,49,0.00,,---,0.04,VWS V14.01,2013-09-26 02:14:00,
2013-09-25 19:20:00,51.1,33.1,29.77,SE,132,0.0,0.0,50,0.00,,---,0.04,VWS V14.01,2013-09-26 02:20:00,
2013-09-25 19:26:00,50.7,32.8,29.77,SE,132,0.0,0.0,50,0.00,,---,0.04,VWS V14.01,2013-09-26 02:26:00,
2013-09-25 19:32:00,50.4,32.9,29.77,SE,132,0.0,0.0,51,0.00,,---,0.04,VWS V14.01,2013-09-26 02:32:00,
2013-09-25 19:38:00,50.2,32.8,29.77,SE,132,0.0,0.0,51,0.00,,---,0.04,VWS V14.01,2013-09-26 02:38:00,
2013-09-25 19:44:00,50.0,32.6,29.77,SE,132,0.0,0.0,51,0.00,,---,0.04,VWS V14.01,2013-09-26 02:44:00,
2013-09-25 19:50:00,49.6,32.8,29.77,SE,132,0.0,0.0,52,0.00,,---,0.04,VWS V14.01,2013-09-26 02:50:00,
2013-09-25 19:56:00,49.5,32.6,29.77,SE,132,0.0,0.0,52,0.00,,---,0.04,VWS V14.01,2013-09-26 02:56:00,
2013-09-25 20:02:00,49.1,32.2,29.77,SE,132,0.0,0.0,52,0.00,,---,0.04,VWS V14.01,2013-09-26 03:02:00,
2013-09-25 20:08:00,48.9,32.6,29.77,SE,132,0.0,0.0,53,0.00,,---,0.04,VWS V14.01,2013-09-26 03:08:00,
2013-09-25 20:14:00,48.6,32.2,29.77,SE,132,0.0,0.0,53,0.00,,---,0.04,VWS V14.01,2013-09-26 03:14:00,
2013-09-25 20:20:00,48.4,32.0,29.77,SE,132,0.0,0.0,53,0.00,,---,0.04,VWS V14.01,2013-09-26 03:20:00,
2013-09-25 20:26:00,48.2,32.3,29.77,SE,132,0.0,0.0,54,0.00,,---,0.04,VWS V14.01,2013-09-26 03:26:00,
2013-09-25 20:32:00,47.8,32.9,29.77,SE,132,0.0,0.0,56,0.00,,---,0.04,VWS V14.01,2013-09-26 03:32:00,
2013-09-25 20:38:00,47.8,32.9,29.77,SE,132,0.0,0.0,56,0.00,,---,0.04,VWS V14.01,2013-09-26 03:38:00,
2013-09-25 20:44:00,47.7,32.8,29.77,SE,132,0.0,0.0,56,0.00,,---,0.04,VWS V14.01,2013-09-26 03:44:00,
2013-09-25 20:50:00,47.5,32.6,29.77,SE,132,0.0,0.0,56,0.00,,---,0.04,VWS V14.01,2013-09-26 03:50:00,
2013-09-25 20:56:00,47.3,32.0,29.80,SE,132,0.0,0.0,55,0.00,,---,0.04,VWS V14.01,2013-09-26 03:56:00,
2013-09-25 21:02:00,47.1,32.2,29.80,SE,132,0.0,0.0,56,0.00,,---,0.04,VWS V14.01,2013-09-26 04:02:00,
2013-09-25 21:04:00,47.1,32.2,29.80,SE,132,0.0,0.0,56,0.00,,---,0.04,VWS V14.01,2013-09-26 04:04:00,
2013-09-25 21:08:00,46.9,32.1,29.80,SE,132,0.0,0.0,56,0.00,,---,0.04,VWS V14.01,2013-09-26 04:08:00,
2013-09-25 21:10:00,46.9,32.1,29.80,SE,132,0.0,0.0,56,0.00,,---,0.04,VWS V14.01,2013-09-26 04:10:00,
2013-09-25 21:16:00,46.8,32.3,29.80,SE,132,0.0,0.0,57,0.00,,---,0.04,VWS V14.01,2013-09-26 04:16:00,
2013-09-25 21:22:00,46.8,32.8,29.80,SE,132,0.0,0.0,58,0.00,,---,0.04,VWS V14.01,2013-09-26 04:22:00,
2013-09-25 21:28:00,46.8,32.8,29.80,SE,132,0.0,0.0,58,0.00,,---,0.04,VWS V14.01,2013-09-26 04:28:00,
2013-09-25 21:34:00,46.8,32.8,29.80,SE,132,0.0,0.0,58,0.00,,---,0.04,VWS V14.01,2013-09-26 04:34:00,
2013-09-25 21:40:00,46.6,33.0,29.80,SE,132,0.0,0.0,59,0.00,,---,0.04,VWS V14.01,2013-09-26 04:40:00,
2013-09-25 21:46:00,46.6,33.0,29.80,SE,132,0.0,0.0,59,0.00,,---,0.04,VWS V14.01,2013-09-26 04:46:00,
2013-09-25 21:52:00,46.6,33.0,29.80,SE,132,0.0,0.0,59,0.00,,---,0.04,VWS V14.01,2013-09-26 04:52:00,
2013-09-25 21:58:00,46.6,33.5,29.80,SE,132,0.0,0.0,60,0.00,,---,0.04,VWS V14.01,2013-09-26 04:58:00,
2013-09-25 22:04:00,46.6,33.5,29.80,SE,132,0.0,0.0,60,0.00,,---,0.04,VWS V14.01,2013-09-26 05:04:00,
2013-09-25 22:10:00,46.6,33.9,29.80,SE,132,0.0,0.0,61,0.00,,---,0.04,VWS V14.01,2013-09-26 05:10:00,
2013-09-25 22:16:00,46.4,33.7,29.80,SE,131,0.0,0.0,61,0.00,,---,0.04,VWS V14.01,2013-09-26 05:16:00,
2013-09-25 22:22:00,46.4,34.1,29.80,SE,132,0.0,0.0,62,0.00,,---,0.04,VWS V14.01,2013-09-26 05:22:00,
2013-09-25 22:28:00,46.2,33.9,29.80,SE,132,0.0,0.0,62,0.00,,---,0.04,VWS V14.01,2013-09-26 05:28:00,
2013-09-25 22:34:00,46.0,33.8,29.80,SE,132,0.0,0.0,62,0.00,,---,0.04,VWS V14.01,2013-09-26 05:34:00,
2013-09-25 22:40:00,46.0,33.8,29.80,SE,132,0.0,0.0,62,0.00,,---,0.04,VWS V14.01,2013-09-26 05:40:00,
2013-09-25 22:46:00,45.9,34.0,29.80,SE,132,0.0,0.0,63,0.00,,---,0.04,VWS V14.01,2013-09-26 05:46:00,
2013-09-25 22:52:00,45.7,33.8,29.80,SE,132,0.0,0.0,63,0.00,,---,0.04,VWS V14.01,2013-09-26 05:52:00,
2013-09-25 22:58:00,45.5,33.7,29.80,SE,132,0.0,0.0,63,0.00,,---,0.04,VWS V14.01,2013-09-26 05:58:00,
2013-09-25 23:04:00,45.5,33.7,29.80,SE,132,0.0,0.0,63,0.00,,---,0.04,VWS V14.01,2013-09-26 06:04:00,
2013-09-25 23:10:00,45.3,33.5,29.80,SE,132,0.0,0.0,63,0.00,,---,0.04,VWS V14.01,2013-09-26 06:10:00,
2013-09-25 23:16:00,45.1,32.9,29.80,SE,132,0.0,0.0,62,0.00,,---,0.04,VWS V14.01,2013-09-26 06:16:00,
2013-09-25 23:22:00,45.0,33.1,29.80,SE,132,0.0,0.0,63,0.00,,---,0.04,VWS V14.01,2013-09-26 06:22:00,
2013-09-25 23:28:00,45.0,33.1,29.80,SE,132,0.0,0.0,63,0.00,,---,0.04,VWS V14.01,2013-09-26 06:28:00,
2013-09-25 23:34:00,44.8,33.0,29.80,SE,132,0.0,0.0,63,0.00,,---,0.04,VWS V14.01,2013-09-26 06:34:00,
2013-09-25 23:40:00,45.0,33.5,29.80,SE,132,0.0,0.0,64,0.00,,---,0.04,VWS V14.01,2013-09-26 06:40:00,
2013-09-25 23:46:00,45.0,33.5,29.80,SE,132,0.0,0.0,64,0.00,,---,0.04,VWS V14.01,2013-09-26 06:46:00,
2013-09-25 23:52:00,44.8,33.4,29.80,SE,132,0.0,0.0,64,0.00,,---,0.04,VWS V14.01,2013-09-26 06:52:00,
2013-09-25 23:58:00,44.6,33.2,29.80,SE,132,0.0,0.0,64,0.00,,---,0.04,VWS V14.01,2013-09-26 06:58:00,